Location: Shandelee
(41.8790°N, 74.8713°W)
Time: 04:11:26
(UTC+00:00)

Cosmos 1812 Rocket - Pass Details

Date: 29 October 2020
Orbit: 605 x 633 km, 82.5° (Epoch: 23 November)

Event Time Altitude Azimuth Distance (km) Brightness Sun altitude
Rises 23:47:56 0° 191° (S) 2,889 7.1 -21.2°
Reaches altitude 10° 23:50:10 10° 193° (SSW) 1,983 6.3 -21.6°
Maximum altitude 23:54:34 73° 279° (W) 649 3.7 -22.4°
Drops below altitude 10° 23:58:57 10° 4° (N) 1,981 6.1 -23.2°
Sets 00:01:10 0° 6° (N) 2,886 7.0 -23.7°
